shoulder
new_line
new_line
first
second
third
Al di la della Luna; Beyond the Moon; Astrophotography; Astrofotografia; Danilo Pivato
 
 
 
 
 
 
 
         
         
2023

Orbital Elements

Epoch 2023 Feb. 25.0 TT = JDT 2460000.5                                         
T 2021 Sept. 8.94921 TT                                                        Rudenko                 
q   1.6193085            (2000.0)                     P                            Q                  
n   0.13166743     Peri.  207.04963     +0.76733628           -0.64048729             
a   3.8266359       Node 192.92364     +0.61065586          +0.74469915             
e   0.5768324       Incl.       8.00922     +0.19568970          +0.18761454             
P   7.49
Return in the future: 02/2029
 
         
         
         
2006

Orbital Elements

Epoch 2006 Nov. 1.0 TT = JDT 2454040.5
T 2006 Nov. 15.4542 TT                                                              MPCN
q   1.667350                     (2000.0)                  P                          Q
n   0.1305749     Peri.     205.0158      +0.7171343            -0.6949995
a   3.847951       Node   199.3081       +0.6629233            +0.7032241
e   0.566691       Incl.         9.0316      +0.2150608             +0.1498382
P   7.55
Return in the future: 2021
 
         
         
2006.11.15
 
         
         
       
       
         
         
         

 

       
 
Since: 01/01/2004
 
           
Since: 01/11/2010